Regional Weather Roundup
Issued by NWS Huntsville, AL

Home | Current Version | Previous Version | Text Only | Print | Product List | Glossary On
Versions: 1 2 3 4 5 6 7 8 9 10 11 12 13 14 15 16 17 18 19 20 21 22 23 24 25 26 27 28 29 30 31 32 33 34 35 36 37 38 39 40 41 42 43 44 45 46 47 48 49 50
000
ASUS44 KHUN 310210
RWRHUN

WEATHER ROUNDUP FOR THE TENNESSEE VALLEY
NATIONAL WEATHER SERVICE HUNTSVILLE AL
900 PM CDT SAT AUG 30 2014

ALZ001>004-310300-
NORTHWEST ALABAMA

CITY           SKY/WX    TMP DP  RH WIND       PRES   REMARKS
COURTLAND HCN    N/A     72 N/A N/A S3          N/A
RUSSELLVILLE     N/A     72 N/A N/A MISG        N/A
SHOALS AIRPORT CLOUDY    73  70  90 SE3       30.10S
SHOALS TVA RES   N/A     72 N/A N/A MISG        N/A
$$

ALZ005>007-016-310300-
NORTH CENTRAL ALABAMA

CITY           SKY/WX    TMP DP  RH WIND       PRES   REMARKS
DECATUR AP     LGT RAIN  72  71  97 SE5       30.12R
HUNTSVILLE AP  LGT RAIN  73  72  96 SE5       30.13R
HUN NWS/UAH      N/A     71  68  91 SE2         N/A
MERIDIANVILLE  LGT RAIN  70  66  88 CALM      30.13S
VINEMONT AP    FAIR      70  69  97 SE3       30.15S
$$

ALZ008>010-310300-
NORTHEAST ALABAMA

CITY           SKY/WX    TMP DP  RH WIND       PRES   REMARKS
ALBERTVILLE    DRIZZLE   72  72 100 CALM      30.14F
FORT PAYNE     CLOUDY    70  66  88 CALM      30.14F
SCOTTSBORO AP  CLOUDY    72  72 100 SW5       30.14S
SCOTTSBORO HCN   N/A     72 N/A N/A MISG        N/A
VALLEY HEAD      N/A     70 N/A N/A MISG        N/A
$$

TNZ076-096-097-310300-
SOUTHEASTERN MIDDLE TENNESSEE

CITY           SKY/WX    TMP DP  RH WIND       PRES   REMARKS
FAYETTEVILLE   PTCLDY    70  68  94 S5        30.13F
TULLAHOMA      CLOUDY    70  66  88 SW6       30.16S
WINCHESTER     CLOUDY    70  70 100 CALM      30.16F
$$

...SURROUNDING SITES...

CITY           SKY/WX    TMP DP  RH WIND       PRES   REMARKS
ATLANTA        CLOUDY    79  74  84 CALM      30.12R
ANNISTON       CLOUDY    73  71  93 S5        30.14R
BIRMINGHAM     CLOUDY    74  71  91 CALM      30.13S
CHATTANOOGA    TSTM      73  70  90 SW5       30.15R FOG
CORINTH        DRIZZLE   72  70  94 CALM      30.05S
DALTON         TSTM      72  72 100 CALM      30.14R
GADSDEN        CLOUDY    72  66  83 CALM      30.13S
GOLDEN TRNGL   CLOUDY    72  68  88 CALM      30.06R
HALEYVILLE     FAIR      70  70 100 CALM      30.13R
JACKSON TN     LGT RAIN  73  70  90 S7        30.04S
LEWISBURG      CLOUDY    71  69  93 S6        30.11R
MEMPHIS        CLOUDY    74  71  91 SE9       30.00F
NASHVILLE      RAIN      73  71  93 S10       30.09S FOG
ROME           LGT RAIN  73  70  90 CALM      30.12F
SAVANNAH       CLEAR     72  72 100 S3        30.07S
TUPELO         CLOUDY    73  71  93 SE5       30.05S
TUSCALOOSA     CLOUDY    74  72  93 CALM      30.09R
$$

...GULF COAST WEATHER...

CITY           SKY/WX    TMP DP  RH WIND       PRES   REMARKS
GULFPORT       MOCLDY    76  74  93 CALM      30.05R
PASCAGOULA     MOCLDY    75  74  96 CALM      30.06S
MOBILE         CLOUDY    76  75  97 NE5       30.09R
GULF SHORES    MOCLDY    83  77  83 S5        30.07R HX  92
PENSACOLA      MOCLDY    84  78  82 S8        30.07R HX  95
DESTIN         MOCLDY    86  78  77 SW3       30.08R HX  98
PANAMA CITY    MOCLDY    81  77  86 CALM      30.10R
APPALACHICOLA  PTCLDY    81  76  84 CALM      30.08S
$$




USA.gov is the U.S. government's official web portal to all federal, state and local government web resources and services.